Погода в Юсте

Погода в Юсте : погода сейчас, прогноз погоды и архив. Всё, что Вы хотите узнать о погоде в Юсте!

Хотите узнать прогноз погоды в Юсте? Тогда Вам сюда: Погода в Юсте

Поиск расширенной информации на нашем сайте:

Другие новости

Новости СМИ2

Главная страница сайта

Новости сайта

03.07.2017

Напоминаем, что на нашем специализированном сайте Метеоцентр.Азия вы можете получить высокодетализированные автоматические прогнозы погоды по пунктам России, СНГ и мира в авиационном формате (включающие направление и скорость ветра, видимость, явления погоды, количество и форму облачности, нижнюю и верхнюю границу облачности).

Рекомендуем: Мебель для гостиной мебель в гостиную.

Погода в Юсте - сегодня

Время (UTC), дата Ветер
(°,м/с) 
Видим.   Явления Облачность Т
(°С)
Тd
(°С)
f(%) Тe
(°С)
Pmin
(гПа)
dP
(гПа)
Po
(мм)
O2
(г/м3)
Тmin Tmax R s Состояние
почвы
18 14.02.18 090 (В) 10 км    10/10 300 м 
[Sc]
-3.9 -10.3 61 -7  1031.2  0.9  773  317           
21 14.02.18 090 (В) 10 км    10/10 300 м 
[Sc]
-5.1 -10.6 65 -7  1031.9  0.7  774  319           
00 15.02.18 090 (В) 10 км    10/10 300 м 
[Sc]
-6 -10.3 72 -9  1032.4  0.5  774  320           
03 15.02.18 080 (В) 10 км    10/10 300 м 
[Sc]
-6.3 -10.5 72 -9  1032.8  0.4  774  320  -6.3      <0.5  мокрый или
старый снег
10-40% 
06 15.02.18 080 (В) 20000 м    10/10 600 м 
[Sc]
-5.6 -10.2 70 -9  1034.6  1.8  776  320           
09 15.02.18 080 (В) 20000 м    10/0 средняя 
[Ac und]
-2.9 -10.3 57 -6  1035.4  0.8  776  317           
12 15.02.18 090 (В) 20000 м    9/0 средняя 
[Ac As]
-0.4 -9.5 50 -3  1035.6  0.2  776  314           
15 15.02.18 080 (В) 10 км    3/0 средняя 
[Ac trans]
-2 -9.6 56 -4  1036.5  0.9  777  316    +0       
18 15.02.18 080 (В) 10 км    ясно 
-5.3 -9.1 75 -9  1037.1  0.6  778  320           
21 15.02.18 080 (В) 10 км    ясно 
-7.2 -9.9 81 -10  1037.8  0.7  778  323           
00 16.02.18 080 (В) 10 км    ясно 
-8.6 -11.3 81 -11  1037.6  -0.3  778  325           
03 16.02.18 070 (В) 10 км    ясно 
-9.8 -11.7 86 -14  1037.6  0.1  778  326  -9.8      <0.5  мокрый или
старый снег
10-40% 
06 16.02.18 090 (В) 20000 м    4/0 средняя, верхняя 
[Ac trans|Ci fib]
-6.5 -11.7 67 -11  1038.1  0.5  778  322  -9.9         
09 16.02.18 090 (В) 20000 м    ясно 
-0.3 -12.3 40 -3  1037.1  -1  778  315           
12 16.02.18 090 (В) 6-10{11}  20000 м    3/0 верхняя 
[Ci fib]
+1.9 -12.7 33 -1  1035.8  -1.3  777  312           
15 16.02.18 080 (В) 5{11}  10 км    4/0 верхняя 
[Ci fib]
-2.1 -9.7 56 -5  1036.3  0.5  777  316    +1.9       
18 16.02.18 090 (В) 10 км    ясно 
-5.7 -9.3 76 -10  1035.7  -0.6  776  321           
21 16.02.18 090 (В) 10 км    ясно 
-7.6 -10.2 82 -11  1034.9  -0.8  776  323           
00 17.02.18 090 (В) 10 км    ясно 
-8.4 -10.4 85 -12  1033.6  -1.3  775  323           
03 17.02.18 080 (В) 10 км    ясно 
-9 -11 85 -12  1032.7  -0.8  774  324  -9      <0.5  мокрый или
старый снег
10-40% 
06 17.02.18 090 (В) 20000 м    8/0 верхняя 
[Cs]
-6.7 -10.4 75 -11  1032.1  -0.5  774  321  -9.2         
09 17.02.18 090 (В) 20000 м    9/0 средняя, верхняя 
[As trans|Cs]
-1 -10.2 50 -4  1030.1  -2  772  313           
12 17.02.18 090 (В) 5{11}  20000 м    9/0 средняя, верхняя 
[As trans|Cs]
+1.9 -9.9 41 -1  1028.4  -1.8  771  310           
15 17.02.18 080 (В) 5{10}  10 км    9/0 средняя, верхняя 
[Ac trans|Cs]
-1 -8.6 56 -4  1028  -0.4  771  313    +2.1       
18 17.02.18 090 (В) 10 км    5/0 верхняя 
[Ci fib]
-3.8 -8.9 68 -7  1027.5  -0.5  770  316           
Время (UTC), дата Ветер
(°,м/с) 
Видим.   Явления Облачность Т
(°С)
Тd
(°С)
f(%) Тe
(°С)
Pmin
(гПа)
dP
(гПа)
Po
(мм)
O2
(г/м3)
Тmin Tmax R s Состояние
почвы

Для получения пояснительной информации подведите курсор к названию столбца.

ПОГОДА в Юсте - архив

Всё, что Вы хотите узнать о погоде в Юсте - удобно и подробно!

Выберите нужную дату (начиная с 1 января 2015* года) и нажмите кнопку "Найти".
Будут отображены архивные сводки погоды по пункту Юста, начиная с указанной даты.


Отображать данные в формате CSV (для использования в таблицах Excel)


Внимание! Наш архив погоды предназначен исключительно для личного некоммерческого использования в познавательных целях. Если Вам необходимы официальные справки о состоянии погоды (для производственных, юридических, коммерческих и т.п. целей), обращайтесь в органы Росгидромета.

*Примечание: данная дата относится к архиву по метеостанциям СССР (Россия, СНГ, Балтия).
Архив по метеостанциям Зарубежной Европы и Азии (кроме Китая) хранится 10 дней, по другим регионам земного шара (Китай, Африка, Америка, Австралия, Океания) - 1 день.

Юста - район местоположения метеостанции


Название, широта, долгота, высота метеостанции:
Юста 47.1°ш. 46.3°д. 2 м над ур. моря [Российская Федерация]

Дополнительная информация

В oтличие oт бoльшинства пoгoдных сайтoв мы публикуем пoдрoбную метеoинфoрмацию в детальнoм прoфессиoнальнoм фoрмате.

Характеристики температуры и влажнoсти вoздуха измеряются на высoте 2 м в тени вдали oт зданий и деревьев.
Скoрoсть ветра измеряется на высoте 10 м (на урoвне рoста челoвека скoрoсть ветра ниже в 1.5-2 раза). Если метеoстанция нахoдится в гoрoде или в лесу, тo скoрoсть ветра занижена на 2-4 м/с пo сравнению с oткрытым местoм. Скoрoсть ветра над акватoриями крупных рек и oзёр, а также на вершинах хoлмoв на 2-5 м/с выше, чем в oбычных услoвиях.
Атмoсфернoе давление в разных тoчках местнoсти мoжет значительнo oтличаться oт давления на метеoстанции, в зависимoсти oт услoвий рельефа (при пoдъёме на 10 м давление пoнижается примернo на 1 мм рт.ст.).